Wind_Speed
28 28 28 29 30 31 32 31 32 29 31 36 32 30 19 18 22 32 30 33 35 39 40 43 43 38 36 36 35 37 34 49 68 74 70 65 64 63 63 58 51 49 47 40
28 29 31 33 28 26 29 32 33 35 32 33 30 27 20 26 31 30 32 34 40 39 38 26 26 32 34 33 39 40 38 36 50 73 74 69 52 68 64 59 55 51 49 44
31 26 31 35 30 28 30 31 33 34 32 29 29 27 20 23 29 34 38 39 38 40 36 34 34 33 32 34 35 37 40 38 42 53 77 74 71 68 72 63 59 58 48 46
28 30 25 26 27 30 28 30 30 31 30 28 24 26 21 32 31 33 35 31 36 38 40 41 46 47 38 37 35 39 40 44 45 48 66 80 77 74 59 58 53 70 49 46
20 25 26 25 22 26 26 28 26 24 23 25 21 25 22 32 31 31 31 35 39 42 43 47 49 50 51 46 45 44 38 44 49 50 51 74 77 69 66 59 62 46 34 42
20 22 24 21 17 20 24 27 27 26 20 17 19 22 25 28 29 30 29 34 39 43 47 48 43 49 49 52 48 49 49 43 48 55 54 53 71 74 71 63 63 54 49 45
18 21 25 23 21 20 25 28 29 19 10 14 15 26 31 27 26 28 35 38 39 51 44 49 47 44 43 47 49 51 53 50 52 54 52 55 58 75 72 69 66 59 49 49
17 18 22 23 24 24 25 26 22 27 27 17 14 16 19 25 26 34 38 41 44 56 49 49 49 47 44 42 42 51 56 54 53 59 51 57 56 71 74 70 67 59 53 49
21 17 20 23 22 23 19 18 21 24 24 22 14 19 26 25 27 30 37 41 44 45 45 45 50 44 42 42 32 44 51 54 55 56 56 55 63 61 75 72 68 62 54 50
23 20 20 17 19 22 20 15 20 22 27 24 20 18 25 25 28 34 38 38 44 37 41 40 41 40 35 37 34 34 40 43 49 48 52 57 61 58 73 72 69 64 58 57
23 22 20 18 20 16 10 13 23 21 22 26 25 22 27 32 33 35 38 43 37 43 40 38 36 34 33 28 26 25 38 41 44 45 50 58 58 58 70 72 68 63 61 64
23 21 19 15 15 17 13 24 22 22 20 23 27 28 27 30 32 36 39 39 37 40 38 38 39 34 28 23 25 19 17 19 27 48 53 55 53 54 67 70 66 65 61 64
22 22 19 17 14 13 19 18 17 19 22 22 27 25 26 28 29 33 37 36 35 35 31 33 31 30 33 24 23 18 8 10 21 25 35 52 53 52 65 67 67 64 59 54
21 23 22 21 18 15 15 18 18 18 20 23 27 27 24 25 28 31 34 37 37 34 29 31 33 34 31 29 14 14 16 17 26 28 36 43 45 52 66 65 66 59 52 41
18 20 21 20 18 18 20 18 23 18 22 28 26 24 25 28 28 32 37 39 32 33 29 32 32 27 30 22 8 10 18 23 27 36 34 41 45 59 69 64 55 60 55 35
22 20 20 20 19 19 18 14 25 16 17 21 25 22 25 29 28 29 34 37 23 30 30 30 31 26 30 28 16 10 27 10 12 28 27 33 44 60 65 70 52 61 59 46
22 22 21 17 17 20 16 18 19 23 21 25 28 20 24 31 30 25 31 34 38 38 29 26 26 22 28 21 17 8 6 9 3 11 24 28 38 55 48 57 47 61 62 32
19 20 19 19 17 18 18 19 22 21 30 27 26 26 29 33 34 24 30 32 33 34 33 26 25 23 22 21 10 1 7 5 15 17 21 26 41 63 48 40 52 58 33 36
21 19 19 21 18 17 18 17 16 22 29 27 28 29 31 34 35 26 24 29 31 34 31 26 24 16 19 18 12 8 8 11 10 10 14 22 40 59 24 26 36 25 31 31
26 25 22 20 24 22 20 19 22 22 25 27 30 31 30 31 31 23 16 22 26 30 32 30 28 23 12 16 10 13 6 9 11 8 13 31 40 41 35 26 33 44 32 32
24 26 25 25 24 25 25 28 23 23 22 23 25 25 27 30 32 30 19 18 21 23 27 31 29 22 15 11 7 4 13 3 19 21 23 27 44 33 33 24 30 39 30 25
25 25 23 24 24 24 28 26 27 24 22 25 25 25 27 29 29 29 26 15 18 20 23 26 27 23 10 15 10 5 1 8 23 21 17 26 22 32 30 20 35 21 21 16
26 29 26 25 23 25 26 29 30 28 27 27 24 23 23 26 28 26 27 17 15 18 20 22 23 21 15 12 5 10 13 13 27 25 29 28 25 30 23 6 9 9 24 23
27 29 25 26 23 27 30 28 28 28 26 27 26 24 22 24 27 26 26 21 16 17 18 20 21 17 17 11 9 10 10 17 32 9 26 23 19 33 16 12 11 19 24 20
29 30 30 27 28 29 29 32 30 30 29 27 25 27 24 22 26 25 25 23 17 16 17 19 20 17 13 13 8 8 10 24 25 28 28 24 20 21 16 15 16 15 15 15
30 33 33 30 30 33 31 31 32 31 31 29 26 27 25 22 24 24 25 25 18 18 18 21 21 16 12 11 5 5 10 22 20 24 20 18 26 29 29 25 20 18 17 14
Wind_Direction
304 303 290 287 296 295 293 292 289 283 282 288 300 303 276 275 281 270 275 278 284 291 294 297 286 283 278 263 252 257 258 246 239 233 231 228 232 230 231 231 233 237 241 242
303 296 290 296 297 290 287 290 288 287 296 297 301 297 274 261 266 272 278 286 292 293 286 277 281 284 280 277 263 255 254 248 247 233 231 228 226 234 228 232 231 235 242 239
303 299 296 298 298 294 290 292 290 293 296 302 295 291 278 264 265 268 280 289 291 294 293 285 279 282 285 280 268 253 252 256 248 242 230 226 223 231 221 222 229 227 230 239
298 293 293 288 293 292 291 291 295 301 307 302 293 283 253 258 266 267 274 278 289 284 291 286 283 284 284 276 259 260 253 250 247 246 235 227 226 229 223 221 225 220 224 233
309 294 290 291 301 294 296 296 302 310 304 295 285 279 268 270 264 274 285 288 288 287 292 284 283 289 283 282 276 269 257 251 246 243 245 232 232 231 224 227 235 238 224 231
305 305 299 310 308 307 308 308 309 316 302 303 295 285 273 253 272 297 299 287 283 285 285 284 288 284 283 277 271 268 254 252 247 242 237 240 232 228 224 225 230 230 229 234
315 314 316 323 314 315 310 310 313 319 288 302 287 279 292 291 288 295 294 296 296 301 296 301 297 295 287 278 274 268 261 252 238 244 234 234 232 225 223 221 225 223 224 231
322 317 311 318 316 314 315 315 321 324 324 333 324 303 286 275 289 305 308 310 315 305 302 297 303 302 293 283 276 267 261 251 237 233 236 230 229 223 220 219 223 224 221 230
326 338 320 315 314 310 316 313 320 322 322 325 327 326 308 312 312 312 305 310 314 303 300 302 304 304 298 292 277 277 261 255 235 227 228 229 227 220 218 216 220 219 220 228
329 331 318 319 318 311 303 305 318 323 319 325 335 327 317 311 320 322 318 315 322 324 318 314 312 310 306 302 296 276 255 262 237 228 222 227 226 218 215 214 218 219 218 225
326 329 331 331 329 308 317 318 322 323 325 323 323 340 331 329 331 330 327 330 330 332 324 318 315 315 320 310 302 289 263 240 235 216 221 216 223 215 209 212 216 219 218 222
328 332 333 339 331 307 277 319 318 314 315 330 326 321 329 334 331 333 336 332 327 334 330 329 323 321 324 318 322 303 268 266 222 220 223 218 217 211 207 209 213 218 220 221
338 338 339 329 330 329 295 307 308 304 315 330 324 334 328 334 333 336 342 336 325 336 338 336 332 330 323 321 314 298 272 201 199 206 198 204 203 205 201 206 212 219 195 213
335 336 340 335 318 319 318 290 296 300 316 325 327 334 329 330 340 346 350 344 341 336 349 343 348 351 336 327 320 295 261 163 175 191 189 193 197 197 197 203 210 210 206 215
324 331 341 337 330 325 317 335 337 284 307 316 321 324 327 335 347 352 353 350 349 339 344 343 353 354 4 351 332 227 232 182 183 188 184 195 189 195 195 201 196 201 223 205
321 331 335 329 342 330 317 318 333 331 322 330 323 314 313 326 340 349 351 357 346 337 345 349 353 357 353 11 347 253 212 231 216 157 196 198 188 196 203 198 189 206 218 207
312 315 319 329 336 335 324 325 328 329 336 336 335 338 322 321 326 346 353 358 352 350 353 351 344 350 353 351 3 310 179 201 264 144 199 199 188 197 202 213 193 197 207 217
292 301 319 331 331 329 330 330 328 325 328 338 335 342 337 335 334 345 349 354 1 357 358 354 354 1 2 357 4 266 256 281 183 163 176 195 199 193 176 168 185 202 204 213
315 317 322 321 325 320 313 321 316 313 311 330 337 338 338 340 338 339 348 345 357 2 357 354 357 350 1 357 334 304 297 197 186 162 181 202 196 205 185 203 194 189 197 208
311 314 314 315 313 317 313 318 322 321 321 327 330 330 333 334 344 339 338 343 352 360 9 1 359 352 42 21 313 294 221 219 165 140 122 187 180 183 189 176 190 200 219 225
301 296 301 302 306 308 313 307 314 311 324 321 322 325 328 336 341 349 337 349 352 359 8 2 358 357 350 22 40 331 292 244 167 186 139 181 181 209 170 174 195 196 195 212
291 293 292 291 294 300 299 308 306 307 317 322 326 323 329 332 335 344 340 348 351 354 0 3 4 10 3 14 55 299 345 218 167 170 188 169 189 213 209 155 179 197 201 220
289 290 295 296 297 291 299 297 304 312 314 312 317 319 322 326 328 340 341 343 349 352 356 355 3 9 356 351 319 298 311 176 168 170 187 156 167 160 163 169 149 200 189 209
285 286 287 287 293 291 290 298 302 302 303 305 308 318 314 321 323 334 339 342 344 351 352 350 351 356 7 341 341 328 110 159 174 182 187 152 160 184 162 152 152 189 168 170
280 272 278 285 288 291 297 298 300 301 300 301 308 308 313 312 318 329 334 340 339 342 348 345 340 342 341 351 326 346 90 139 148 161 137 143 176 161 171 160 166 169 177 184
276 281 283 285 286 285 285 290 295 296 297 299 302 305 307 309 312 323 328 334 338 340 344 345 340 340 329 317 263 185 160 147 140 150 146 146 156 174 171 171 178 183 204 203
Height
5797 5794 5790 5787 5783 5778 5775 5773 5772 5773 5770 5767 5766 5766 5766 5764 5762 5756 5757 5756 5755 5755 5753 5750 5747 5747 5747 5747 5748 5750 5752 5752 5753 5763 5773 5781 5790 5796 5802 5810 5820 5824 5828 5834
5789 5786 5779 5776 5774 5772 5769 5766 5764 5762 5763 5760 5761 5758 5760 5755 5748 5746 5749 5749 5747 5744 5742 5741 5739 5737 5735 5734 5736 5739 5742 5742 5740 5747 5757 5768 5776 5778 5789 5799 5810 5816 5820 5825
5780 5779 5771 5766 5765 5763 5762 5760 5757 5755 5756 5756 5751 5753 5753 5748 5743 5743 5742 5741 5738 5735 5733 5730 5729 5728 5727 5727 5724 5726 5731 5735 5732 5731 5739 5750 5761 5758 5770 5781 5794 5802 5808 5816
5774 5769 5768 5763 5760 5757 5756 5752 5750 5750 5748 5746 5745 5742 5744 5735 5736 5736 5736 5735 5732 5727 5723 5720 5718 5716 5715 5714 5714 5714 5716 5721 5723 5725 5726 5732 5743 5753 5766 5772 5772 5778 5797 5805
5769 5762 5759 5756 5755 5751 5749 5746 5746 5745 5742 5736 5735 5734 5734 5727 5728 5730 5730 5726 5720 5718 5715 5710 5708 5704 5701 5702 5703 5703 5703 5707 5709 5711 5717 5722 5726 5741 5759 5763 5764 5760 5781 5796
5760 5758 5755 5753 5751 5747 5743 5741 5740 5739 5735 5733 5731 5727 5728 5723 5722 5722 5719 5715 5711 5710 5707 5700 5696 5691 5688 5685 5684 5684 5685 5689 5693 5695 5704 5709 5718 5730 5743 5754 5759 5771 5782 5789
5757 5753 5751 5749 5747 5744 5739 5735 5733 5732 5731 5730 5726 5722 5719 5717 5715 5714 5708 5705 5700 5694 5690 5685 5680 5676 5671 5668 5666 5664 5666 5672 5674 5678 5688 5698 5704 5716 5730 5743 5753 5765 5776 5783
5753 5751 5747 5744 5740 5738 5734 5731 5727 5723 5722 5724 5721 5719 5716 5713 5710 5706 5700 5696 5694 5682 5678 5672 5666 5659 5654 5650 5648 5645 5644 5650 5656 5660 5673 5682 5690 5701 5717 5730 5742 5757 5767 5776
5749 5748 5743 5739 5737 5734 5733 5729 5725 5721 5720 5718 5719 5715 5709 5708 5706 5703 5696 5691 5684 5675 5670 5662 5654 5646 5639 5634 5631 5625 5626 5628 5636 5643 5653 5666 5675 5687 5702 5718 5730 5746 5758 5766
5746 5743 5739 5736 5734 5730 5727 5726 5723 5719 5715 5712 5713 5710 5705 5701 5699 5694 5687 5681 5673 5666 5659 5650 5642 5634 5628 5622 5616 5613 5609 5609 5614 5630 5639 5654 5663 5677 5692 5707 5720 5733 5749 5754
5743 5740 5737 5733 5729 5725 5724 5723 5720 5717 5714 5710 5705 5707 5699 5694 5690 5685 5678 5671 5664 5657 5648 5640 5633 5626 5618 5612 5603 5599 5595 5594 5602 5617 5626 5639 5653 5667 5682 5698 5711 5723 5737 5742
5740 5737 5733 5731 5727 5722 5722 5720 5717 5714 5713 5709 5703 5702 5696 5691 5686 5678 5673 5666 5659 5652 5642 5635 5625 5618 5611 5604 5598 5592 5589 5586 5594 5606 5616 5630 5645 5659 5673 5690 5704 5713 5721 5733
5738 5735 5732 5727 5727 5724 5721 5718 5715 5711 5708 5705 5701 5700 5694 5689 5684 5677 5668 5661 5655 5648 5641 5632 5620 5610 5601 5595 5591 5591 5589 5586 5588 5598 5603 5618 5635 5649 5666 5683 5694 5708 5692 5716
5736 5732 5728 5725 5722 5720 5718 5714 5711 5708 5704 5702 5698 5694 5691 5687 5680 5673 5665 5655 5648 5641 5635 5628 5618 5609 5596 5591 5591 5592 5589 5586 5591 5598 5604 5617 5629 5645 5659 5673 5687 5683 5697 5715
5734 5731 5727 5722 5718 5714 5712 5710 5707 5705 5702 5699 5696 5691 5687 5681 5674 5667 5659 5652 5643 5638 5631 5626 5618 5607 5602 5595 5593 5593 5592 5592 5593 5596 5608 5614 5624 5636 5650 5669 5659 5699 5708 5712
5728 5727 5725 5719 5716 5711 5709 5707 5704 5702 5701 5696 5692 5688 5683 5677 5672 5667 5658 5651 5642 5635 5629 5622 5617 5611 5604 5597 5592 5592 5593 5597 5599 5595 5606 5616 5626 5632 5646 5655 5663 5688 5699 5695
5726 5723 5721 5718 5714 5708 5707 5704 5701 5698 5696 5692 5688 5685 5679 5673 5669 5665 5657 5647 5642 5635 5629 5623 5616 5613 5606 5602 5599 5596 5592 5592 5594 5599 5611 5619 5628 5635 5648 5661 5673 5658 5685 5694
5723 5719 5716 5713 5711 5708 5704 5701 5698 5695 5691 5689 5685 5681 5675 5668 5661 5659 5653 5647 5641 5635 5630 5623 5617 5611 5606 5602 5602 5600 5597 5595 5599 5604 5613 5620 5626 5636 5643 5649 5660 5674 5678 5692
5716 5714 5711 5708 5706 5705 5701 5699 5697 5693 5689 5685 5682 5678 5673 5665 5658 5654 5651 5645 5640 5634 5629 5623 5619 5615 5609 5604 5603 5603 5603 5604 5605 5608 5615 5619 5630 5640 5652 5654 5665 5673 5684 5697
5709 5707 5708 5706 5702 5698 5696 5694 5693 5690 5686 5682 5679 5675 5671 5665 5659 5655 5652 5647 5640 5633 5629 5624 5619 5615 5612 5608 5606 5605 5608 5610 5612 5613 5618 5627 5636 5647 5657 5658 5665 5674 5685 5694
5706 5703 5702 5700 5698 5695 5692 5688 5688 5686 5686 5680 5677 5672 5668 5661 5655 5653 5649 5647 5641 5634 5629 5623 5619 5614 5611 5609 5607 5607 5609 5609 5616 5615 5621 5629 5637 5646 5652 5660 5665 5676 5683 5690
5700 5698 5697 5695 5693 5693 5687 5687 5683 5681 5679 5676 5673 5669 5665 5659 5654 5652 5647 5645 5641 5635 5629 5624 5619 5616 5613 5610 5608 5608 5613 5613 5620 5622 5624 5636 5640 5647 5654 5660 5668 5675 5681 5688
5693 5691 5690 5690 5688 5685 5683 5679 5677 5675 5674 5671 5669 5665 5662 5658 5652 5651 5646 5643 5640 5635 5629 5624 5621 5619 5615 5612 5613 5611 5611 5612 5620 5626 5627 5633 5642 5647 5654 5662 5665 5674 5681 5690
5687 5683 5684 5682 5682 5678 5676 5675 5673 5670 5669 5667 5665 5662 5659 5656 5650 5649 5644 5640 5638 5634 5629 5625 5621 5619 5617 5616 5616 5615 5612 5616 5621 5629 5630 5637 5643 5652 5657 5664 5671 5678 5684 5690
5677 5676 5675 5676 5674 5672 5672 5668 5666 5665 5663 5662 5661 5658 5655 5653 5648 5646 5642 5639 5636 5632 5629 5624 5621 5618 5617 5616 5616 5618 5618 5621 5627 5634 5639 5643 5650 5655 5661 5668 5673 5678 5682 5687
5667 5666 5666 5668 5668 5665 5665 5663 5660 5659 5657 5656 5656 5655 5652 5650 5647 5643 5639 5636 5634 5630 5626 5623 5619 5614 5614 5615 5617 5621 5623 5628 5632 5638 5642 5647 5652 5656 5662 5667 5672 5678 5683 5687